Location: Trebic
(49.2170°N, 15.8830°E)
Time: 11:25:36
(UTC+02:00)

Transit 2A Rocket - Pass Details

Date: 30 July 2019
Orbit: 590 x 913 km, 66.7° (Epoch: 19 August)

Event Time Altitude Azimuth Distance (km) Brightness Sun altitude
Rises 07:55:28 0° 323° (NW) 3,261 7.9 22.4°
Reaches altitude 10° 07:58:55 10° 345° (NNW) 2,257 7.4 23.0°
Maximum altitude 08:02:01 16° 22° (NNE) 1,817 7.4 23.5°
Drops below altitude 10° 08:04:59 10° 60° (ENE) 2,126 8.5 24.0°
Sets 08:08:05 0° 83° (E) 2,975 9.4 24.5°
